Hourly Data Report for October 03, 2014

All times are specified in Local Standard Time (LST). Add 1 hour to adjust for Daylight Saving Time where and when it is observed.

HALL BEACH A
NUNAVUT

68°46'33.000" N
81°14'33.000" W
9.10 m
2402354
71293
YUX

Download Data

Hourly Data (October 2014)
Hourly Data Report for October 3, 2014
Temp Definition
°C
Dew Point Temp Definition
°C
Rel Hum Definition
%
Wind Dir Definition
10's deg

Wind Spd Definition
km/h
Visibility Definition
km
Stn Press Definition
kPa
Hmdx Definition


Wind Chill Definition


Weather Definition


TIME
00:00 Legend Double Dagger -4.3 -7.1 81 3 18 16.1 101.06   -10 Snow
01:00 Legend Double Dagger -4.2 -7.2 80 5 15 16.1 101.08   -10 Snow
02:00 Legend Double Dagger -4.1 -7.1 80 6 22 16.1 101.11   -11 Snow
03:00 Legend Double Dagger -4.2 -7.5 78 5 21 16.1 101.15   -11 Snow
04:00 Legend Double Dagger -4.0 -7.3 78 7 17 16.1 101.17   -10 LegendNANA
05:00 Legend Double Dagger -3.5 -6.1 83 6 26 16.1 101.20   -11 Snow
06:00 Legend Double Dagger -3.8 -6.3 83 6 32 16.1 101.25   -12 Snow
07:00 Legend Double Dagger -4.0 -7.3 78 5 26 16.1 101.29   -11 LegendNANA
08:00 Legend Double Dagger -4.5 -7.3 81 3 28 16.1 101.33   -12 LegendNANA
09:00 Legend Double Dagger -4.3 -7.0 82 1 26 16.1 101.36   -12 LegendNANA
10:00 Legend Double Dagger -4.1 -7.2 79 1 24 16.1 101.38   -11 LegendNANA
11:00 Legend Double Dagger -4.5 -6.7 85 1 22 16.1 101.39   -11 LegendNANA
12:00 Legend Double Dagger -4.2 -6.4 85 36 28 16.1 101.41   -12 LegendNANA
13:00 Legend Double Dagger -3.7 -5.9 85 1 28 16.1 101.42   -11 LegendNANA
14:00 Legend Double Dagger -3.8 -6.2 84 1 30 16.1 101.47   -11 LegendNANA
15:00 Legend Double Dagger -4.1 -6.9 81 1 32 16.1 101.47   -12 LegendNANA
16:00 Legend Double Dagger -4.4 -7.9 77 2 30 16.1 101.50   -12 LegendNANA
17:00 Legend Double Dagger -4.9 -7.6 82 1 22 16.1 101.56   -12 LegendNANA
18:00 Legend Double Dagger -6.0 -7.4 90 34 18 16.1 101.59   -12 LegendNANA
19:00 Legend Double Dagger -6.5 -7.7 91 34 21 16.1 101.62   -14 LegendNANA
20:00 Legend Double Dagger -7.1 -8.1 93 33 21 16.1 101.64   -14 LegendNANA
21:00 Legend Double Dagger -7.0 -7.9 94 34 17 16.1 101.65   -13 LegendNANA
22:00 Legend Double Dagger -6.6 -7.6 93 34 17 16.1 101.68   -13 LegendNANA
23:00 Legend Double Dagger -7.4 -8.3 93 33 18 16.1 101.65   -14 LegendNANA

Notes on Data Quality.

Legend

  • E = Estimated
  • M = Missing
  • NA = Not Available
  • ‡ = Partner data that is not subject to review by the National Climate Archives
Date modified: